TIME,DELAY(SENSOR),PRES,T(CTD),SAL,OXYGEN,RAWTEMP,T(OPTODE),TCPHASE,TURBIDITY,TURBIDITY_GAIN,FLUOR,BETA,CDOM,ED411.5,ED443.8,ED489.6,PAR,COMP,TILT,TILTY(TILT),CHECK
1340692712,6504,202.8999938964843800,5.9513001441955570,34.8730010986328100,322.0411987304687500,731.5300292968750000,5.9264278411865230,34.5048904418945300,16,3,49,106,65,2147243378,2147556063,2147571858,2147363245,2452,0,-12,61314
1340692773,6502,198.9600067138672000,5.9769001007080080,34.8712005615234400,321.4894104003906000,730.8681030273438000,5.9493079185485840,34.5122909545898440,15,3,48,106,64,2147242582,2147557059,2147571844,2147361649,1997,0,-12,16657
1340692834,6503,195.0700073242187500,5.9814000129699710,34.8709983825683600,321.6597900390625000,730.6470947265625000,5.9569449424743650,34.5020713806152340,16,3,48,104,64,2147244360,2147559661,2147568328,2147361302,1343,0,-11,36419
1340692895,6469,191.1999969482422000,6.0090999603271480,34.8661994934082000,322.0331115722656000,729.8449707031250000,5.9846630096435550,34.4727706909179700,16,3,50,106,66,2147240689,2147556680,2147571587,2147361846,862,0,-12,61978
1340692956,6466,187.4299926757812500,6.0293998718261720,34.8613014221191400,322.5094909667969000,729.3453979492188000,6.0019211769104000,34.4454002380371100,15,3,50,106,65,2147239432,2147555350,2147570906,2147357124,467,0,-12,9174
1340693018,6502,183.6600036621093800,6.0377998352050780,34.8600997924804700,322.2802124023437500,729.0015869140625000,6.0137939453125000,34.4475784301757800,16,3,50,106,64,2147239419,2147555474,2147569155,2147360781,2776,0,-12,19044
1340693079,6503,180.0099945068359400,6.0616002082824710,34.8568000793457000,322.4078063964844000,728.3795776367188000,6.0352749824523930,34.4309005737304700,16,3,50,107,65,2147242623,2147554317,2147570710,2147361375,2073,0,-12,26743
1340693140,6503,176.3899993896484400,6.0647001266479490,34.8563003540039060,322.7885131835937500,728.2540283203125000,6.0396080017089840,34.4146118164062500,16,3,50,108,64,2147240589,2147556585,2147567962,2147358696,1465,0,-12,2059
1340693201,6468,172.7400054931640600,6.0665998458862305,34.8563995361328100,323.2756042480469000,728.1660766601562000,6.0426459312438965,34.3947105407714840,16,3,50,106,66,2147237741,2147557137,2147571633,2147359482,744,0,-12,15037
1340693262,6467,169.1999969482422000,6.0812997817993160,34.8535995483398440,325.0202026367187500,727.7045288085938000,6.0585818290710450,34.3224601745605500,16,3,49,109,64,2147236785,2147556415,2147568539,2147362152,72,0,-12,28904
1340693324,6468,165.8399963378906200,6.1009001731872560,34.8461990356445300,327.8815002441406000,727.2368774414062000,6.0747199058532715,34.2098999023437500,16,3,48,105,64,2147241594,2147553339,2147571450,2147360694,2901,0,-12,30597
1340693388,6504,162.6100006103515600,6.1241998672485350,34.8479995727539060,329.5636901855469000,726.5761718750000000,6.0975189208984375,34.1370887756347660,16,3,48,104,64,2147241494,2147553521,2147570490,2147362816,2205,0,-12,9902
1340693449,6503,159.6900024414062500,6.1255998611450195,34.8474006652832000,328.6091003417969000,726.4650878906250000,6.1013507843017580,34.1687889099121100,16,3,50,113,65,2147235830,2147553343,2147570075,2147358829,1738,0,-12,61973
1340693513,6467,156.8800048828125000,6.1282000541687010,34.8466987609863300,327.9934082031250000,726.4058227539062000,6.1033987998962400,34.1902618408203100,16,3,50,110,65,2147237864,2147557412,2147569348,2147360818,1267,0,-12,38587
1340693574,6468,154.3200073242187500,6.1360998153686520,34.8454017639160160,327.6856079101562500,726.1751098632812000,6.1113572120666500,34.1966400146484400,16,3,48,108,64,2147239350,2147556164,2147571332,2147362546,818,0,-12,261
1340693638,6469,151.8099975585937500,6.1504998207092285,34.8437995910644500,328.3884887695312500,725.7390747070312000,6.1263937950134280,34.1631507873535160,16,3,50,108,64,2147238687,2147551583,2147570271,2147361928,258,0,-12,15448
1340693699,6491,149.5099945068359400,6.1606001853942870,34.8408012390136700,329.2720031738281000,725.4780883789062000,6.1353950500488280,34.1265182495117200,16,3,50,110,64,2147238957,2147556566,2147572145,2147362212,3469,0,-12,61738
1340693793,6467,145.4799957275390600,6.1802000999450680,34.8361015319824200,329.6606140136719000,724.8842163085938000,6.1558761596679690,34.1011314392089840,16,3,50,110,64,2147238883,2147556493,2147572447,2147361466,2266,0,-12,45102
1340693854,6504,142.1199951171875000,6.1996998786926270,34.8340988159179700,329.6270141601562500,724.3604125976562000,6.1739330291748050,34.0924186706543000,16,3,50,109,64,2147239725,2147553352,2147571492,2147358664,1661,0,-12,51096
1340693918,6503,138.5800018310547000,6.2143998146057130,34.8283996582031250,329.6426086425781000,723.9719848632812000,6.1873211860656740,34.0846900939941400,16,3,50,110,64,2147240498,2147555332,2147571602,2147360877,994,0,-12,22930
1340693980,6504,135.0599975585937500,6.2214999198913570,34.8199005126953100,330.5433044433594000,723.7127075195312000,6.1962571144104000,34.0474510192871100,16,3,50,108,64,2147234920,2147557750,2147573489,2147363570,3548,0,-12,9263
1340694044,6504,131.3800048828125000,6.2305998802185060,34.8103981018066400,330.9364929199219000,723.4426269531250000,6.2055659294128420,34.0283699035644500,16,3,49,109,64,2147238866,2147555853,2147571341,2147362171,2476,0,-12,46193
1340694105,6504,127.7600021362304700,6.2295999526977540,34.8088989257812500,331.9146118164062500,723.4270019531250000,6.2061038017272950,33.9931907653808600,16,3,50,107,64,2147239053,2147556790,2147574696,2147359236,1835,0,-12,34734
1340694169,6504,123.7900009155273400,6.2361998558044430,34.8073005676269500,332.5501098632812500,723.2365722656250000,6.2126641273498535,33.9671516418457000,16,3,50,107,64,2147237078,2147557132,2147576420,2147362330,1093,0,-12,27829
1340694230,6466,119.8300018310546900,6.2582998275756840,34.8050003051757800,332.4804992675781000,722.6550292968750000,6.2327017784118650,33.9585189819335940,16,3,51,106,64,2147240804,2147556406,2147575496,2147359817,388,0,-12,17337
1340694318,6504,114.5199966430664000,6.2593998908996580,34.8003005981445300,330.3749084472656000,722.5695800781250000,6.2356410026550290,34.0319709777832000,16,3,50,107,64,2147236758,2147558093,2147575103,2147360470,2751,0,-12,27387
1340694379,6467,111.5800018310546900,6.2638001441955570,34.7951011657714840,328.5369873046875000,722.3507080078125000,6.2431831359863280,34.0937500000000000,16,3,52,108,64,2147237984,2147557672,2147576200,2147360022,2400,0,-12,21468
1340694443,6504,108.5000000000000000,6.2793998718261720,34.7949981689453100,328.0494079589844000,722.0427246093750000,6.2537899017333980,34.1053390502929700,16,3,50,107,63,2147236063,2147556703,2147578458,2147361179,1904,0,-12,46111
1340694504,6504,105.6399993896484400,6.2820000648498535,34.7938995361328100,328.0119018554687500,721.9270019531250000,6.2577738761901855,34.1042518615722660,16,3,52,107,64,2147239770,2147558376,2147581987,2147362747,1540,0,-12,13101
1340694568,6467,102.7300033569336000,6.2887001037597660,34.7924995422363300,327.6398010253906000,721.7366943359375000,6.2643299102783200,34.1139984130859400,16,3,50,107,64,2147239282,2147558614,2147583871,2147362148,927,0,-12,61113
1340694630,6468,100.0500030517578100,6.3063998222351070,34.7871017456054700,326.8622131347656000,721.4342041015625000,6.2747421264648440,34.1366691589355500,16,3,53,107,64,2147240255,2147558450,2147584712,2147361123,107,0,-12,15095
1340694694,6504,97.5699996948242200,6.3218002319335940,34.7827987670898440,324.0527954101562500,720.8336181640625000,6.2954220771789550,34.2269287109375000,16,3,55,110,66,2147240378,2147556241,2147584580,2147363478,3103,0,-12,63477
1340694755,6503,95.4400024414062500,6.3278999328613280,34.7809982299804700,321.5852050781250000,720.6290283203125000,6.3024601936340330,34.3136100769043000,16,3,56,111,64,2147239921,2147555172,2147586248,2147362888,2367,0,-12,26537
1340694843,6504,91.7799987792968800,6.3734998703002930,34.7766990661621100,319.3057861328125000,719.2108154296875000,6.3512630462646480,34.3709106445312500,16,3,58,113,66,2147238504,2147557129,2147587890,2147361919,1720,0,-12,27038
1340694904,6465,88.5699996948242200,6.4036002159118650,34.7738990783691400,319.8858032226562500,718.3770141601562000,6.3799400329589840,34.3338508605957000,16,3,58,114,65,2147238764,2147559263,2147586555,2147363930,1202,0,-11,20345
1340694968,6468,85.0299987792968800,6.4337000846862790,34.7719993591308600,322.5874938964844000,717.5628051757812000,6.4079341888427730,34.2190017700195300,16,3,60,118,64,2147237631,2147556237,2147589512,2147365722,515,0,-12,53632
1340695029,6467,81.4199981689453100,6.4608001708984375,34.7700996398925800,324.9624938964844000,716.7675170898438000,6.4352679252624510,34.1172981262207000,16,3,62,120,64,2147239158,2147558472,2147591917,2147366162,3292,0,-12,49469
1340695093,6504,77.5100021362304700,6.5001001358032230,34.7677001953125000,326.1236877441406000,715.7327270507812000,6.4708228111267090,34.0559806823730500,16,3,64,122,64,2147239227,2147560223,2147599332,2147366788,2500,0,-12,60901
1340695154,6504,73.7200012207031200,6.5468997955322270,34.7645988464355500,327.4935913085937500,714.2036132812500000,6.5233330726623535,33.9778289794921900,16,3,68,126,64,2147239665,2147557467,2147604443,2147370445,1873,0,-12,35927
1340695242,6503,69.0699996948242200,6.5956001281738280,34.7612991333007800,331.4598999023437500,712.9539794921875000,6.5662188529968260,33.8133010864257800,16,3,72,128,64,2147237156,2147558829,2147610491,2147372150,1118,0,-12,8700
1340695304,6469,66.9000015258789000,6.6394000053405760,34.7569007873535160,332.3500061035156000,711.7993164062500000,6.6058349609375000,33.7600708007812500,16,3,73,126,65,2147242015,2147561462,2147615592,2147372443,720,0,-12,16809
1340695392,6468,63.4900016784668000,6.6793999671936035,34.7557983398437500,333.1062011718750000,710.4329223632812000,6.6526808738708500,33.7081489562988300,16,3,74,131,64,2147235958,2147566161,2147621677,2147373891,3251,0,-12,37841
1340695453,6504,60.0999984741210940,6.8129000663757320,34.7543983459472660,334.8533935546875000,706.9962768554688000,6.7704048156738280,33.5835800170898440,15,3,86,141,66,2147239346,2147567259,2147628726,2147377197,2438,0,-10,61359
1340695517,6468,56.3499984741210940,6.9485001564025880,34.7517013549804700,336.0194091796875000,702.6298217773438000,6.9197459220886230,33.4628410339355500,16,3,99,147,66,2147240658,2147572516,2147651821,2147386605,2064,0,-12,55536
1340695578,6504,52.6899986267089840,7.1993999481201170,34.7453002929687500,336.5320129394531000,697.6972045898438000,7.0881481170654300,33.3551406860351560,19,3,116,162,66,2147246019,2147579258,2147678490,2147400000,1112,0,-12,3057
1340695666,6469,48.0999984741210940,7.3589000701904300,34.7430992126464840,336.6924133300781000,691.4923706054688000,7.2995200157165530,33.2375907897949200,21,3,139,149,66,2147250399,2147589306,2147722847,2147413197,430,0,-12,46239
1340695727,6470,46.7200012207031250,7.5036997795104980,34.7368011474609400,336.7141113281250000,690.0048217773438000,7.3501219749450680,33.2099189758300800,20,3,144,161,64,2147252250,2147595551,2147734381,2147421362,330,0,-12,27306
1340695827,6505,45.2500000000000000,7.8446998596191410,34.7322998046875000,335.5693969726562500,681.5103149414062000,7.6385188102722170,33.0977897644043000,24,3,178,198,65,2147255615,2147600758,2147748324,2147427314,2775,0,-12,4289
1340695941,6505,42.4799995422363300,8.2924995422363280,34.7304992675781250,335.8344116210937500,663.0410766601562000,8.2623920440673830,32.7648010253906250,31,3,246,250,64,2147260799,2147608137,2147772817,2147439711,2701,0,-12,41712
1340696002,6505,40.0999984741210940,8.6274003982543950,34.7284011840820300,335.4395141601562500,651.4105834960938000,8.6530971527099610,32.5785102844238300,42,3,463,317,66,2147274568,2147625069,2147830326,2147468178,2001,0,-11,682
1340696093,6470,35.7400016784668000,9.2202997207641600,34.7296981811523440,341.0856933593750000,634.9605102539062000,9.2029628753662110,32.1100692749023440,114,3,1573,699,67,2147341416,2147739862,2148141901,2147589110,1044,0,-10,24369
1340696154,6504,32.2599983215332000,9.5546998977661130,34.7286987304687500,345.6500854492187500,626.4912109375000000,9.4848403930664060,31.8185291290283200,114,3,1735,716,68,2147524484,2148057311,2148809366,2147824562,2699,0,-10,58092
1340696218,6504,28.7199993133544920,10.2596998214721680,34.7335014343261700,346.7437133789062500,600.4669799804688000,10.3459997177124020,31.3622207641601560,80,3,1314,469,68,2147891501,2148633416,2149821974,2148196530,1712,0,-12,7196
1340696279,6506,26.1299991607666000,11.2368001937866210,34.7098007202148440,347.3192138671875000,578.9027709960938000,11.0541696548461910,31.0046005249023440,65,3,472,406,68,2148219057,2149116776,2150611574,2148513481,1538,0,-12,21569
1340696343,6470,24.0200004577636720,11.7061004638671880,34.7246017456054700,345.3272094726562500,563.7631225585938000,11.5485897064208980,30.8359107971191400,361,3,389,406,68,2148561864,2149579967,2151322875,2148809718,369,0,-10,10078
1340696417,6505,22.2900009155273440,11.8042001724243160,34.7281990051269500,344.2315979003906000,558.1334838867188000,11.7318801879882810,30.7855091094970700,58,3,326,321,68,2148951372,2150090829,2152076218,2149133037,2549,0,-11,9705
1340696508,6470,19.3600006103515620,11.9898004531860350,34.7324981689453100,342.4047851562500000,550.8367919921875000,11.9690103530883790,30.7342090606689450,63,3,348,376,68,2150129933,2151549234,2154056868,2150030458,2415,0,-12,55836
1340696569,6470,16.4400005340576170,12.2052001953125000,34.7332992553710940,340.6882019042969000,543.8735961914062000,12.1948499679565430,30.6853694915771500,62,3,285,371,64,2151699204,2153393196,2156409119,2151143666,2205,0,-10,13689
1340696633,6470,13.5600004196167000,12.8354997634887700,34.7332000732421900,334.7947082519531000,524.8148803710938000,12.8107995986938480,30.5955390930175780,77,3,302,397,64,2154041380,2156063743,2159504122,2152696201,1268,0,-12,62860
1340696695,6471,11.1999998092651370,12.9257001876831050,34.7352981567382800,331.9078063964844000,521.5120239257812000,12.9172401428222660,30.6428604125976560,81,3,310,383,64,2157077060,2159430486,2163256502,2154667766,1168,0,-9,52626
1340696759,6469,8.7799997329711910,12.9642000198364260,34.7360992431640600,329.8251037597656000,520.0806274414062000,12.9633302688598630,30.6916999816894530,75,3,304,376,64,2161109064,2163726271,2167608973,2157218180,337,-4,-12,32908
1340696811,6470,6.9600000381469730,12.9689998626708980,34.7370986938476560,329.0813903808594000,519.8193969726562000,12.9717397689819340,30.7131099700927730,77,3,282,404,66,2164714170,2167446381,2171181887,2159565092,740,0,-10,7122
1340696886,6470,4.4600000381469730,12.9693002700805660,34.7375984191894500,328.7569885253906000,519.7650146484375000,12.9734897613525390,30.7231807708740230,74,3,274,389,64,2172983355,2175760260,2178794404,2165538636,1178,-2,-5,49655
1340696944,6471,0.8999999761581421,0.0000000000000000,0.0000000000000000,328.7504882812500000,519.7882080078125000,12.9727497100830080,30.7236309051513670,87,3,284,358,64,2180887249,2183513421,2185594728,2172559350,2478,-2,-12,28599
1340696982,6471,0.8999999761581421,0.0000000000000000,0.0000000000000000,328.5672912597656000,519.7904052734375000,12.9726800918579100,30.7298393249511720,73,3,258,352,64,2189438335,2191669658,2192299642,2182897490,1920,-13,-24,33911
